TimeEST,TemperatureF,Dew PointF,Humidity,Sea Level PressureIn,VisibilityMPH,Wind Direction,Wind SpeedMPH,Gust SpeedMPH,PrecipitationIn,Events,Conditions,WindDirDegrees,DateUTC
12:56 AM,33.1,26.1,75,30.17,10.0,NW,10.4,-,N/A,,Overcast,310,2013-11-23 05:56:00
1:56 AM,32.0,24.1,73,30.19,10.0,NNW,12.7,18.4,N/A,,Overcast,330,2013-11-23 06:56:00
2:56 AM,30.9,24.1,76,30.19,10.0,NW,9.2,-,N/A,,Mostly Cloudy,320,2013-11-23 07:56:00
3:09 AM,30.2,23.0,75,30.16,10.0,NW,11.5,-,N/A,,Scattered Clouds,320,2013-11-23 08:09:00
3:56 AM,30.0,21.9,72,30.18,10.0,NW,11.5,-,N/A,,Mostly Cloudy,310,2013-11-23 08:56:00
4:56 AM,28.9,21.9,75,30.18,10.0,WNW,12.7,-,N/A,,Mostly Cloudy,300,2013-11-23 09:56:00
5:56 AM,28.0,21.0,75,30.18,10.0,NW,8.1,-,N/A,,Mostly Cloudy,310,2013-11-23 10:56:00
6:36 AM,26.6,19.4,74,30.14,10.0,WNW,3.5,-,N/A,,Scattered Clouds,300,2013-11-23 11:36:00
6:56 AM,28.0,19.9,72,30.19,10.0,West,3.5,-,N/A,,Clear,260,2013-11-23 11:56:00
7:29 AM,26.6,21.2,80,30.15,10.0,WSW,6.9,-,N/A,,Mostly Cloudy,250,2013-11-23 12:29:00
7:56 AM,28.0,21.9,78,30.19,10.0,WSW,6.9,-,N/A,,Overcast,250,2013-11-23 12:56:00
8:56 AM,28.9,23.0,78,30.19,10.0,West,12.7,-,N/A,,Overcast,260,2013-11-23 13:56:00
9:56 AM,30.0,23.0,75,30.18,10.0,West,11.5,-,N/A,,Overcast,270,2013-11-23 14:56:00
10:56 AM,32.0,23.0,69,30.15,10.0,WSW,16.1,25.3,N/A,,Mostly Cloudy,250,2013-11-23 15:56:00
11:09 AM,33.8,21.2,60,30.09,10.0,West,18.4,28.8,N/A,,Scattered Clouds,260,2013-11-23 16:09:00
11:32 AM,33.8,21.2,60,30.08,10.0,West,18.4,28.8,N/A,,Mostly Cloudy,260,2013-11-23 16:32:00
11:56 AM,33.1,21.9,64,30.11,10.0,West,16.1,21.9,N/A,,Mostly Cloudy,270,2013-11-23 16:56:00
12:23 PM,33.8,19.4,56,30.04,10.0,West,19.6,32.2,N/A,,Mostly Cloudy,260,2013-11-23 17:23:00
12:56 PM,33.1,19.9,59,30.08,10.0,West,16.1,27.6,N/A,,Mostly Cloudy,260,2013-11-23 17:56:00
1:31 PM,30.2,23.0,75,30.03,1.5,West,19.6,32.2,0.00,Snow,Light Snow,280,2013-11-23 18:31:00
1:36 PM,30.2,24.8,80,30.03,0.2,West,18.4,32.2,0.00,Snow,Heavy Snow,280,2013-11-23 18:36:00
1:43 PM,28.4,24.8,86,30.03,0.2,WNW,16.1,29.9,0.01,Snow,Heavy Snow,290,2013-11-23 18:43:00
1:53 PM,28.4,21.2,74,30.02,1.0,West,21.9,32.2,0.01,Snow,Light Snow,270,2013-11-23 18:53:00
1:56 PM,28.9,21.9,75,30.08,2.0,West,18.4,32.2,0.01,Snow,Light Snow,280,2013-11-23 18:56:00
2:03 PM,30.2,21.2,69,30.02,9.0,West,16.1,24.2,0.00,,Overcast,260,2013-11-23 19:03:00
2:10 PM,30.2,21.2,69,30.01,10.0,West,12.7,21.9,0.00,,Overcast,260,2013-11-23 19:10:00
2:56 PM,28.9,19.9,69,30.08,2.5,WNW,18.4,28.8,0.00,Snow,Light Snow,290,2013-11-23 19:56:00
3:00 PM,28.4,21.2,74,30.03,0.8,West,18.4,28.8,0.00,Snow,Light Snow,280,2013-11-23 20:00:00
3:12 PM,28.4,21.2,74,30.03,2.0,West,13.8,27.6,0.00,Snow,Light Snow,280,2013-11-23 20:12:00
3:20 PM,28.4,21.2,74,30.03,7.0,WNW,17.3,26.5,0.00,Snow,Light Snow,290,2013-11-23 20:20:00
3:27 PM,28.4,19.4,69,30.03,9.0,West,17.3,27.6,0.00,,Overcast,280,2013-11-23 20:27:00
3:56 PM,28.0,19.0,69,30.09,10.0,West,16.1,29.9,0.00,,Overcast,280,2013-11-23 20:56:00
4:07 PM,28.4,19.4,69,30.04,2.0,WNW,13.8,24.2,0.00,Snow,Light Snow,290,2013-11-23 21:07:00
4:11 PM,26.6,21.2,80,30.04,0.8,NW,13.8,24.2,0.00,Snow,Light Snow,310,2013-11-23 21:11:00
4:25 PM,26.6,21.2,80,30.05,0.8,NW,20.7,29.9,0.00,Snow,Light Snow,310,2013-11-23 21:25:00
4:31 PM,26.6,19.4,74,30.05,3.0,WNW,17.3,29.9,0.00,Snow,Light Snow,290,2013-11-23 21:31:00
4:56 PM,26.1,18.0,71,30.12,2.5,NW,15.0,31.1,0.00,Snow,Light Snow,310,2013-11-23 21:56:00
5:05 PM,24.8,15.8,69,30.07,4.0,WNW,18.4,38.0,0.00,Snow,Light Snow,300,2013-11-23 22:05:00
5:15 PM,24.8,15.8,69,30.07,7.0,NW,20.7,29.9,0.00,Snow,Light Snow,310,2013-11-23 22:15:00
5:53 PM,24.8,12.2,59,30.08,10.0,WNW,21.9,33.4,0.00,,Mostly Cloudy,300,2013-11-23 22:53:00
5:56 PM,24.1,12.9,62,30.16,10.0,NW,20.7,33.4,0.00,,Mostly Cloudy,310,2013-11-23 22:56:00
6:33 PM,23.0,15.8,74,30.09,4.0,WNW,17.3,28.8,0.00,Snow,Light Snow,300,2013-11-23 23:33:00
6:37 PM,23.0,15.8,74,30.10,2.0,WNW,18.4,28.8,0.00,Snow,Light Snow,300,2013-11-23 23:37:00
6:44 PM,21.2,15.8,80,30.10,1.8,WNW,15.0,24.2,0.00,Snow,Light Snow,290,2013-11-23 23:44:00
6:47 PM,21.2,17.6,86,30.10,3.0,WNW,18.4,29.9,0.00,Snow,Light Snow,300,2013-11-23 23:47:00
6:56 PM,21.9,15.1,75,30.17,5.0,NW,16.1,31.1,0.00,Snow,Light Snow,310,2013-11-23 23:56:00
7:12 PM,21.2,14.0,74,30.11,1.8,WNW,18.4,28.8,0.00,Snow,Light Snow,290,2013-11-24 00:12:00
7:21 PM,21.2,15.8,80,30.11,0.5,WNW,17.3,25.3,0.00,Snow,Snow,300,2013-11-24 00:21:00
7:29 PM,21.2,15.8,80,30.11,1.0,NW,15.0,29.9,0.00,Snow,Light Snow,320,2013-11-24 00:29:00
7:34 PM,21.2,15.8,80,30.11,3.0,NW,15.0,21.9,0.00,Snow,Light Snow,310,2013-11-24 00:34:00
7:56 PM,21.0,14.0,74,30.19,9.0,NW,16.1,26.5,0.00,,Mostly Cloudy,310,2013-11-24 00:56:00
8:11 PM,19.4,15.8,86,30.13,1.8,NW,11.5,18.4,0.00,Snow,Light Snow,320,2013-11-24 01:11:00
8:15 PM,19.4,15.8,86,30.13,1.0,NNW,12.7,19.6,0.00,Snow,Light Snow,340,2013-11-24 01:15:00
8:31 PM,19.4,12.2,74,30.13,1.8,NNW,15.0,24.2,0.00,Snow,Light Snow,330,2013-11-24 01:31:00
8:40 PM,19.4,12.2,74,30.14,3.0,NNW,18.4,27.6,0.00,Snow,Light Snow,340,2013-11-24 01:40:00
8:48 PM,19.4,12.2,74,30.14,1.8,NNW,15.0,27.6,0.00,Snow,Light Snow,330,2013-11-24 01:48:00
8:56 PM,19.0,12.9,77,30.22,1.0,NNW,11.5,21.9,0.00,Snow,Light Snow,330,2013-11-24 01:56:00
9:03 PM,19.4,12.2,74,30.15,0.5,NW,16.1,25.3,0.00,Snow,Snow,320,2013-11-24 02:03:00
9:13 PM,17.6,14.0,86,30.15,0.5,NW,11.5,20.7,0.01,Fog-Snow,Snow,320,2013-11-24 02:13:00
9:33 PM,19.4,12.2,74,30.15,1.0,NNW,17.3,24.2,0.01,Snow,Light Snow,330,2013-11-24 02:33:00
9:54 PM,17.6,12.2,79,30.15,1.5,NW,12.7,21.9,0.01,Snow,Light Snow,310,2013-11-24 02:54:00
9:56 PM,18.0,12.9,81,30.22,1.2,WNW,10.4,21.9,0.01,Snow,Light Snow,290,2013-11-24 02:56:00
10:32 PM,17.6,12.2,79,30.15,3.0,WNW,16.1,23.0,0.00,Snow,Light Snow,300,2013-11-24 03:32:00
10:56 PM,18.0,10.0,71,30.23,9.0,NW,18.4,25.3,0.00,,Mostly Cloudy,310,2013-11-24 03:56:00
11:43 PM,17.6,10.4,73,30.16,1.5,NW,13.8,20.7,0.00,Snow,Light Snow,310,2013-11-24 04:43:00
11:46 PM,17.6,12.2,79,30.16,0.5,NW,12.7,20.7,0.00,Snow,Snow,310,2013-11-24 04:46:00
11:56 PM,18.0,12.9,81,30.22,0.5,West,10.4,19.6,0.01,Snow,Snow,280,2013-11-24 04:56:00